Temp
0 1 1 1 1 1 1 0 1 2 2 2 1 2 2 2 1 0 -1 0 -0 0 1 1 1 0 0 -0 -0 -1 -1 -2 -2 -2 -1 -2 -2 -2
-0 -1 -1 -0 -0 0 0 0 0 -0 0 1 1 1 1 1 1 1 1 1 1 0 1 1 1 -0 -0 -1 -1 -1 -2 -2 -2 -2 -2 -2 -2 -2
-1 -1 -1 -1 -1 -1 -1 -1 -1 -1 -1 1 0 0 0 0 1 1 1 1 0 1 1 0 1 0 -1 -1 -1 -2 -1 -2 -2 -2 -3 -2 -2 -3
-2 -1 -1 -1 -1 -2 -2 -2 -2 -2 -2 -1 0 -0 -0 -0 0 0 1 0 0 -0 -0 -0 0 -0 -1 -1 -1 -1 -2 -2 -2 -2 -3 -3 -3 -3
-2 -2 -2 -3 -3 -3 -3 -2 -2 -2 -2 -2 -1 -1 -1 -1 -1 -1 -0 0 -1 -1 -1 -1 -1 -1 -1 -1 -2 -2 -2 -3 -3 -2 -3 -3 -3 -3
-2 -2 -3 -3 -3 -3 -4 -3 -3 -3 -3 -3 -3 -2 -2 -1 -2 -2 -1 -1 -0 -1 -1 -1 -1 -1 -1 -1 -1 -2 -2 -2 -3 -3 -3 -3 -3 -4
-3 -3 -3 -4 -4 -5 -5 -4 -4 -4 -4 -4 -4 -4 -3 -3 -3 -3 -2 -2 -2 -2 -1 -2 -2 -1 -1 -1 -2 -2 -2 -2 -2 -3 -3 -3 -4 -5
-4 -4 -5 -5 -5 -5 -6 -5 -5 -5 -5 -4 -4 -4 -4 -5 -5 -5 -3 -3 -2 -2 -2 -1 -2 -2 -1 -2 -2 -2 -2 -2 -2 -3 -3 -4 -4 -4
-7 -7 -7 -8 -7 -7 -7 -6 -6 -6 -6 -5 -5 -4 -4 -3 -4 -4 -4 -3 -3 -2 -2 -2 -2 -2 -2 -2 -2 -2 -3 -3 -3 -3 -3 -4 -4 -5
-10 -10 -10 -10 -9 -9 -9 -8 -7 -6 -6 -5 -5 -4 -4 -4 -4 -4 -4 -4 -4 -3 -3 -3 -2 -2 -2 -2 -2 -3 -3 -3 -3 -3 -4 -4 -5 -5
-11 -11 -11 -11 -11 -11 -10 -9 -8 -7 -7 -6 -5 -4 -4 -4 -4 -5 -5 -4 -4 -3 -3 -2 -2 -3 -2 -2 -3 -3 -4 -3 -4 -4 -4 -5 -6 -6
-11 -11 -11 -12 -12 -11 -11 -10 -10 -9 -7 -6 -5 -4 -4 -4 -5 -6 -5 -4 -4 -3 -4 -3 -3 -3 -3 -3 -3 -3 -3 -4 -4 -4 -5 -6 -6 -7
-12 -12 -12 -12 -12 -11 -11 -11 -11 -10 -8 -6 -5 -5 -4 -4 -5 -5 -4 -4 -4 -3 -3 -3 -3 -3 -3 -3 -3 -3 -4 -4 -5 -6 -6 -6 -7 -7
-13 -13 -13 -13 -12 -11 -11 -11 -10 -9 -8 -7 -6 -5 -6 -5 -5 -4 -4 -4 -4 -3 -4 -4 -3 -4 -4 -4 -4 -4 -5 -5 -7 -7 -7 -7 -7 -7
-13 -13 -13 -13 -12 -12 -11 -11 -10 -9 -8 -7 -7 -6 -6 -5 -5 -4 -4 -4 -4 -4 -4 -4 -5 -5 -5 -5 -5 -5 -5 -6 -6 -7 -7 -7 -8 -8
-13 -13 -13 -12 -12 -12 -11 -11 -10 -9 -8 -8 -6 -6 -6 -5 -5 -4 -5 -5 -4 -5 -5 -5 -5 -5 -5 -5 -5 -6 -6 -6 -7 -8 -8 -8 -8 -8
-14 -13 -13 -13 -12 -11 -11 -10 -9 -9 -8 -8 -7 -7 -6 -6 -5 -5 -6 -6 -6 -6 -5 -5 -5 -5 -5 -6 -6 -6 -7 -8 -8 -8 -8 -9 -9 -9
-14 -14 -13 -13 -12 -11 -11 -10 -9 -9 -9 -9 -8 -8 -7 -6 -6 -6 -6 -6 -6 -6 -6 -6 -6 -6 -6 -7 -7 -7 -8 -8 -8 -8 -9 -9 -9 -10
-14 -14 -14 -13 -12 -12 -11 -10 -10 -10 -10 -9 -9 -8 -7 -7 -7 -7 -7 -6 -6 -6 -6 -6 -6 -6 -7 -7 -8 -8 -8 -8 -9 -9 -9 -10 -10 -11
-14 -14 -14 -13 -12 -12 -11 -11 -10 -10 -10 -10 -9 -8 -7 -7 -7 -7 -7 -7 -6 -7 -7 -6 -7 -7 -8 -8 -8 -8 -9 -9 -10 -10 -10 -11 -11 -11
-14 -14 -14 -13 -12 -12 -11 -11 -10 -10 -10 -10 -9 -8 -7 -7 -7 -8 -7 -7 -7 -7 -7 -7 -7 -8 -8 -8 -9 -10 -10 -10 -10 -11 -11 -11 -11 -12
-15 -14 -14 -13 -12 -12 -11 -11 -10 -10 -10 -10 -9 -8 -8 -8 -8 -8 -7 -7 -7 -7 -7 -8 -8 -9 -9 -9 -9 -10 -10 -10 -10 -10 -11 -11 -12 -12
-15 -14 -14 -13 -12 -12 -11 -10 -11 -11 -11 -9 -8 -8 -8 -8 -8 -7 -8 -8 -8 -8 -8 -8 -9 -9 -9 -9 -10 -10 -10 -11 -11 -11 -12 -12 -12 -12
Height
2977 2975 2971 2967 2965 2962 2958 2955 2949 2940 2934 2937 2933 2936 2936 2937 2937 2937 2933 2933 2931 2930 2928 2925 2925 2925 2925 2926 2927 2929 2930 2930 2931 2932 2932 2933 2932 2931
2965 2961 2959 2956 2952 2949 2945 2942 2939 2932 2920 2925 2921 2920 2920 2917 2918 2918 2917 2916 2915 2914 2914 2912 2911 2911 2912 2913 2914 2915 2916 2916 2918 2919 2920 2920 2920 2918
2953 2948 2944 2940 2937 2934 2931 2927 2922 2918 2910 2905 2905 2905 2902 2902 2902 2901 2900 2898 2897 2896 2897 2897 2896 2896 2897 2897 2898 2899 2901 2902 2905 2905 2905 2907 2907 2906
2939 2934 2929 2924 2920 2917 2913 2909 2906 2904 2897 2890 2891 2889 2888 2887 2885 2883 2882 2882 2880 2880 2878 2882 2882 2882 2882 2882 2881 2883 2886 2887 2890 2891 2893 2894 2894 2894
2925 2920 2916 2912 2908 2903 2898 2894 2892 2887 2884 2878 2874 2876 2873 2873 2869 2867 2865 2863 2865 2866 2864 2867 2867 2867 2867 2866 2867 2867 2869 2872 2876 2876 2880 2880 2881 2881
2914 2908 2904 2898 2892 2888 2884 2879 2875 2872 2869 2864 2860 2858 2858 2856 2854 2851 2849 2848 2847 2843 2847 2848 2850 2851 2849 2852 2851 2851 2856 2858 2862 2862 2866 2868 2868 2868
2902 2897 2891 2886 2881 2876 2869 2865 2861 2857 2854 2850 2846 2844 2841 2840 2839 2838 2835 2835 2831 2833 2831 2832 2833 2833 2833 2834 2836 2837 2841 2843 2846 2849 2852 2854 2855 2855
2885 2881 2876 2872 2867 2861 2857 2852 2850 2844 2840 2836 2833 2829 2828 2827 2825 2825 2822 2819 2815 2818 2817 2817 2817 2817 2815 2818 2822 2823 2827 2830 2832 2834 2838 2841 2842 2842
2868 2863 2858 2855 2851 2845 2840 2837 2835 2832 2827 2823 2818 2816 2812 2813 2811 2809 2808 2805 2803 2803 2804 2800 2801 2803 2802 2803 2806 2810 2813 2816 2819 2823 2826 2828 2830 2830
2851 2847 2841 2836 2834 2830 2824 2819 2818 2816 2814 2811 2805 2801 2799 2798 2796 2795 2793 2791 2787 2788 2791 2788 2789 2790 2789 2791 2790 2792 2798 2803 2808 2811 2813 2815 2818 2819
2838 2833 2827 2821 2820 2816 2810 2804 2801 2800 2800 2795 2791 2788 2785 2784 2782 2779 2777 2776 2773 2773 2775 2776 2775 2777 2777 2777 2778 2781 2787 2792 2797 2799 2801 2804 2808 2809
2825 2821 2815 2811 2805 2803 2798 2793 2786 2785 2781 2779 2777 2773 2771 2769 2767 2765 2765 2762 2760 2758 2760 2758 2761 2763 2761 2764 2767 2772 2777 2782 2786 2787 2791 2795 2797 2799
2813 2807 2803 2799 2794 2791 2789 2784 2778 2773 2769 2764 2760 2757 2754 2752 2751 2751 2750 2747 2747 2744 2747 2748 2748 2748 2749 2753 2757 2764 2770 2773 2776 2778 2782 2785 2787 2790
2804 2799 2792 2788 2784 2781 2778 2774 2769 2763 2757 2752 2748 2743 2740 2739 2737 2737 2736 2734 2734 2733 2733 2735 2735 2736 2741 2746 2752 2757 2761 2764 2766 2770 2773 2776 2778 2781
2798 2791 2784 2780 2775 2772 2770 2765 2760 2753 2746 2741 2736 2734 2731 2728 2726 2725 2723 2721 2719 2720 2722 2724 2727 2730 2736 2743 2747 2750 2752 2756 2760 2763 2766 2768 2770 2771
2789 2783 2777 2772 2769 2765 2761 2757 2751 2744 2736 2730 2726 2724 2720 2718 2716 2714 2711 2710 2712 2712 2715 2720 2725 2730 2735 2739 2741 2744 2748 2751 2754 2756 2758 2760 2761 2762
2780 2776 2770 2765 2761 2757 2753 2748 2742 2735 2727 2721 2717 2714 2711 2709 2708 2706 2706 2706 2709 2712 2716 2720 2725 2728 2731 2734 2738 2742 2743 2745 2747 2748 2750 2751 2752 2752
2775 2769 2764 2759 2755 2749 2744 2739 2734 2727 2719 2713 2709 2706 2704 2703 2702 2701 2703 2706 2710 2714 2718 2721 2723 2727 2730 2733 2735 2736 2738 2738 2739 2740 2740 2743 2744 2743
2770 2764 2759 2754 2749 2744 2738 2733 2725 2719 2712 2706 2702 2699 2698 2697 2697 2699 2703 2708 2713 2716 2718 2720 2723 2725 2728 2729 2731 2731 2731 2731 2731 2732 2733 2734 2736 2735
2765 2760 2754 2749 2744 2739 2733 2728 2721 2713 2706 2700 2697 2695 2694 2695 2697 2700 2704 2709 2713 2716 2719 2721 2722 2724 2724 2725 2725 2725 2725 2726 2726 2726 2725 2724 2725 2726
2760 2756 2750 2745 2740 2735 2730 2724 2716 2708 2701 2696 2694 2694 2694 2696 2699 2702 2707 2711 2715 2718 2720 2720 2721 2722 2722 2722 2721 2719 2718 2719 2719 2718 2717 2716 2715 2716
2755 2751 2746 2741 2736 2732 2727 2720 2712 2704 2698 2696 2696 2697 2699 2700 2703 2707 2712 2715 2717 2718 2719 2721 2721 2719 2718 2717 2716 2715 2713 2711 2711 2710 2710 2710 2710 2709
2751 2747 2742 2738 2734 2730 2724 2717 2709 2703 2700 2700 2701 2702 2704 2706 2710 2712 2715 2717 2719 2720 2720 2719 2718 2716 2715 2714 2713 2711 2709 2707 2705 2704 2704 2705 2706 2706
Wind_Speed
51 51 52 52 52 53 51 50 52 54 54 55 58 57 54 49 47 46 48 50 48 46 48 40 41 45 45 43 43 45 45 47 45 43 41 40 42 43
51 52 53 54 55 55 54 55 54 57 65 62 61 58 54 53 49 48 50 54 52 51 51 48 47 47 49 47 50 48 48 47 45 44 42 42 42 43
49 50 51 51 53 54 56 57 58 57 59 65 62 61 60 58 56 53 52 53 51 49 49 52 50 51 50 51 56 46 50 48 47 46 42 43 43 44
51 52 52 51 49 48 50 54 56 57 59 64 65 64 62 59 57 55 53 51 51 52 59 49 50 47 47 54 49 54 55 48 44 45 39 41 43 44
49 51 52 51 51 50 50 50 50 51 53 57 62 62 63 61 61 60 57 53 53 51 48 47 53 52 51 45 57 58 58 56 43 47 43 45 40 42
48 50 51 52 52 53 52 51 50 51 52 51 52 55 57 59 59 61 59 58 59 51 52 53 52 56 53 45 53 47 59 54 48 44 44 46 37 40
48 50 52 53 53 53 52 53 53 54 53 52 53 52 55 53 54 54 55 54 52 51 48 41 45 46 48 51 54 54 53 48 52 46 46 42 38 37
51 51 51 51 53 54 52 52 51 52 54 54 54 54 56 56 56 55 56 54 55 52 49 47 45 48 52 52 49 47 50 47 49 49 46 39 36 36
53 52 52 50 50 51 51 52 51 50 49 51 52 53 55 54 54 53 52 53 55 52 48 52 43 37 49 49 53 52 45 57 45 41 41 33 34 32
51 50 52 52 47 46 48 50 50 49 46 47 49 50 52 53 52 51 52 52 53 51 48 49 41 36 35 42 47 42 49 47 42 38 32 30 30 31
48 48 49 49 45 42 45 47 49 46 44 46 45 47 48 48 48 48 51 48 50 48 49 47 46 46 50 46 37 41 42 40 39 30 27 27 28 29
47 47 46 43 42 40 40 42 45 43 44 43 41 43 43 43 43 44 45 48 49 49 48 43 43 43 42 43 36 37 36 35 29 25 25 26 28 26
48 47 45 40 37 36 36 37 39 41 41 43 43 43 43 42 38 36 42 40 48 42 40 38 41 32 33 33 36 34 29 28 24 22 23 26 26 23
46 45 44 37 33 33 33 33 34 37 39 39 38 42 39 36 31 35 41 38 38 37 30 41 31 27 30 35 31 27 25 23 20 22 25 24 22 22
41 42 41 34 32 31 29 29 32 35 37 37 35 37 36 36 34 35 35 33 27 25 22 22 17 15 22 23 21 21 21 18 21 21 21 21 21 22
40 38 37 32 31 29 29 29 31 33 35 35 34 32 31 29 27 24 18 12 8 6 8 7 13 14 16 17 17 18 18 18 18 20 19 20 22 24
41 38 36 32 31 28 27 30 30 34 33 30 29 28 27 21 16 13 3 4 3 5 6 12 12 13 12 13 16 15 16 16 16 18 19 20 21 23
38 37 35 33 31 30 30 31 31 35 33 28 24 24 20 14 10 4 7 6 8 12 10 9 9 9 9 10 11 12 12 15 17 18 19 19 20 24
36 35 35 32 30 29 30 32 36 37 31 26 22 22 16 11 8 14 12 12 11 7 6 5 6 5 6 7 9 11 13 15 16 18 20 21 19 24
33 32 32 29 29 29 30 32 38 35 28 23 20 16 9 10 17 15 14 12 8 6 6 4 3 2 4 8 10 11 13 16 17 18 21 23 23 23
29 28 29 27 28 29 29 32 38 31 25 18 11 6 16 21 21 17 11 10 8 6 4 2 2 4 5 7 10 14 16 14 15 14 14 16 20 19
28 28 26 26 27 28 27 33 34 26 18 9 6 17 21 20 18 17 14 12 9 6 3 1 1 3 5 7 8 9 10 11 10 8 6 7 7 11
27 26 25 25 26 27 27 33 29 20 10 7 17 19 19 20 18 16 14 11 7 6 5 2 3 4 5 6 7 8 9 9 9 6 6 7 6 5
Wind_Direction
280 279 278 276 275 274 275 277 273 287 286 286 283 282 283 282 275 268 271 271 267 267 270 259 258 257 253 253 254 254 250 255 258 260 263 267 271 274
281 281 280 279 278 278 278 277 277 278 280 281 282 283 282 281 278 274 273 272 273 265 265 263 263 257 252 253 256 249 250 252 257 262 264 268 272 276
286 284 282 280 279 277 276 275 275 274 276 277 280 282 282 281 279 276 273 274 274 267 256 259 260 255 251 262 256 245 248 253 251 257 261 268 272 277
287 286 284 282 281 279 276 273 273 273 273 275 276 279 280 282 282 282 279 275 274 268 261 252 255 255 259 264 259 247 244 251 252 255 265 270 268 275
289 290 291 291 289 286 283 281 280 278 277 276 277 277 278 279 281 281 282 280 278 274 274 256 254 257 266 266 257 254 252 245 248 246 256 262 272 274
289 288 288 287 287 287 286 284 283 281 279 278 278 278 276 276 278 281 282 280 278 269 268 272 260 258 254 257 268 255 247 255 248 247 254 264 266 275
294 291 286 284 284 286 286 284 284 283 283 283 282 281 280 280 280 280 283 285 287 281 285 277 273 274 265 249 266 255 242 249 248 242 249 260 266 274
296 291 287 282 280 279 281 282 282 283 282 282 282 282 282 281 281 281 283 287 285 277 278 286 281 284 270 253 258 252 258 245 252 244 256 259 270 278
298 296 291 285 280 279 276 276 276 277 279 281 282 281 281 279 279 279 278 278 279 281 282 280 276 278 279 252 258 255 252 243 248 254 250 260 271 272
301 298 292 289 286 283 280 276 274 274 278 279 278 278 279 279 279 276 276 275 272 274 276 276 274 281 268 268 261 247 244 245 244 245 257 267 269 267
303 302 296 291 289 285 284 284 282 278 275 276 278 279 279 276 275 272 271 282 273 271 269 270 275 280 282 279 253 239 242 246 241 246 260 264 263 259
305 306 306 298 290 288 286 288 289 289 284 280 280 280 283 278 269 264 269 271 271 263 268 273 279 280 272 268 245 239 238 234 241 254 257 257 255 255
309 310 309 302 294 290 286 289 292 296 292 290 289 289 287 280 269 260 256 270 261 269 263 264 271 264 264 260 241 239 231 237 250 251 251 253 252 249
309 311 311 305 297 291 290 291 296 297 295 295 290 292 291 288 276 268 260 277 259 266 255 258 266 259 263 256 231 225 231 241 246 251 248 248 248 255
309 311 314 308 300 294 293 298 302 304 303 296 289 292 289 287 283 275 271 268 269 262 249 252 251 227 225 219 219 235 244 248 244 248 246 248 256 261
311 314 318 311 308 307 303 304 306 311 310 298 289 291 287 274 284 271 278 264 252 237 200 221 209 197 199 221 236 242 244 249 247 243 250 257 261 265
314 317 318 312 313 309 307 308 313 317 315 302 297 290 285 277 264 276 252 93 136 181 203 177 191 211 224 232 237 243 244 242 248 258 263 267 266 262
316 317 318 316 317 314 314 316 319 323 317 309 297 288 281 265 252 237 149 135 152 153 171 197 211 216 219 230 240 243 254 265 270 271 267 257 251 258
314 315 316 317 316 315 316 321 322 326 321 312 297 286 268 252 213 157 150 150 157 175 185 186 194 208 218 231 255 263 271 269 268 266 264 262 250 253
310 314 317 318 316 316 319 324 325 328 325 317 302 284 252 175 146 139 143 154 167 145 166 168 174 223 285 288 280 276 273 272 270 270 269 268 264 251
313 316 319 318 317 317 325 324 330 329 332 327 305 221 147 138 131 128 125 119 122 134 130 102 345 311 289 275 279 286 286 283 282 276 267 262 259 258
315 318 319 319 318 322 330 328 332 334 340 330 136 135 130 125 115 114 117 127 123 110 84 65 354 299 300 311 307 297 297 308 308 294 277 249 239 251
315 318 319 320 322 329 333 333 335 340 353 126 131 125 117 109 111 118 115 111 100 86 72 36 359 350 6 357 341 328 318 302 299 281 245 225 216 203